Change the Weather History Date:

Tuesday, April 2, 2013

  Actual Average Record
Temperature  
Mean Temperature 34 °F -  
Max Temperature 41 °F - - ()
Min Temperature 26 °F - - ()
Degree Days  
Heating Degree Days 32    
Moisture  
Dew Point 27 °F    
Average Humidity 80    
Maximum Humidity 100    
Minimum Humidity 56    
Precipitation  
Precipitation 0.00 in - - ()
Sea Level Pressure  
Sea Level Pressure 29.87 in    
Wind  
Wind Speed 4 mph ()    
Max Wind Speed 13 mph    
Max Gust Speed -    
Visibility 6.2 miles    
Events      
T = Trace of Precipitation, MM = Missing Value Source: Averaged Metar Reports

Daily Weather History Graph

Daily Weather History Graph

Search for Another Location

Airport or City:

Trip Planner

Search our weather history database for the weather conditions in past years. The results will help you decide how hot, cold, wet, or windy it might be!

Date:

Astronomy

Apr. 02, 2013 Rise Set
Actual Time 6:33 AM CEST 7:31 PM CEST
Civil Twilight 6:00 AM CEST 8:04 PM CEST
Nautical Twilight 5:20 AM CEST 8:44 PM CEST
Astronomical Twilight 4:38 AM CEST 9:26 PM CEST
Moon 1:45 AM CEST (4/2) 10:40 AM CEST (4/2)
Length of Visible Light 14h 04m
Length of Day
12h 58m
Waning Gibbous, 59% of the Moon is Illuminated
Apr 2
Waning Gibbous
Apr 3
Last Quarter
Apr 10
New
Apr 18
First Quarter
Apr 25
Full

Hourly Weather History & Observations

Time (CEST) Temp. Windchill Dew Point Humidity Pressure Visibility Wind Dir Wind Speed Gust Speed Precip Events Conditions
12:00 AM 30.2 °F - 28.4 °F 93% 29.86 in - Calm Calm - N/A   Clear
1:00 AM 30.2 °F - 28.4 °F 93% 29.86 in - East 1.2 mph - N/A   Clear
2:00 AM 30.2 °F - 30.2 °F 100% 29.86 in - SE 1.2 mph - N/A   Clear
3:00 AM 30.2 °F - 28.4 °F 93% 29.86 in 6.2 mi Variable 1.2 mph - N/A   Overcast
4:00 AM 30.2 °F - 28.4 °F 93% 29.86 in 6.2 mi Calm Calm - N/A   Mostly Cloudy
5:00 AM 28.4 °F - 28.4 °F 100% 29.83 in - NE 2.3 mph - N/A   Clear
6:00 AM 26.6 °F 22.6 °F 26.6 °F 100% 29.83 in - ENE 3.5 mph - N/A   Clear
7:00 AM 26.6 °F 22.6 °F 26.6 °F 100% 29.86 in - NNE 3.5 mph - N/A   Clear
8:00 AM 28.4 °F 23.3 °F 24.8 °F 86% 29.86 in - East 4.6 mph - N/A   Clear
9:00 AM 30.2 °F 25.4 °F 26.6 °F 86% 29.86 in - ENE 4.6 mph - N/A   Clear
10:00 AM 30.2 °F 21.9 °F 26.6 °F 86% 29.86 in - East 9.2 mph - N/A   Clear
11:00 AM 32.0 °F 24.8 °F 26.6 °F 80% 29.89 in - ENE 8.1 mph - N/A   Clear
12:00 PM 33.8 °F 26.4 °F 26.6 °F 75% 29.89 in - ENE 9.2 mph - N/A   Clear
1:00 PM 35.6 °F 28.6 °F 26.6 °F 70% 29.86 in - East 9.2 mph - N/A   Clear
2:00 PM 37.4 °F 30.8 °F 26.6 °F 65% 29.86 in 6.2 mi East 9.2 mph - N/A   Mostly Cloudy
3:00 PM 39.2 °F 33.0 °F 26.6 °F 61% 29.86 in 6.2 mi East 9.2 mph - N/A   Mostly Cloudy
4:00 PM 39.2 °F 34.2 °F 26.6 °F 61% 29.86 in 6.2 mi East 6.9 mph - N/A   Mostly Cloudy
5:00 PM 41.0 °F 37.1 °F 26.6 °F 57% 29.83 in 6.2 mi ENE 5.8 mph - N/A   Mostly Cloudy
6:00 PM 39.2 °F 31.6 °F 24.8 °F 56% 29.86 in 6.2 mi NNE 12.7 mph - N/A   Mostly Cloudy
7:00 PM 35.6 °F 27.5 °F 24.8 °F 65% 29.86 in - NE 11.5 mph - N/A   Clear
8:00 PM 33.8 °F 27.0 °F 24.8 °F 70% 29.89 in - NE 8.1 mph - N/A   Clear
9:00 PM 33.8 °F 28.6 °F 24.8 °F 70% 29.92 in 6.2 mi NE 5.8 mph - N/A   Mostly Cloudy
10:00 PM 32.0 °F 25.6 °F 24.8 °F 75% 29.92 in 6.2 mi NE 6.9 mph - N/A   Mostly Cloudy
11:00 PM 32.0 °F 26.4 °F 24.8 °F 75% 29.92 in - NNE 5.8 mph - N/A   Clear